This is the latest recevied weather packets stored in our database for station/object KO4LCK. If no packets are shown the sender has not sent any weather packets the latest 10 day(s).
| Time | Temp. | Humidity | Pressure | Rain* | Wind** | Luminosity | Snow |
|---|---|---|---|---|---|---|---|
| 1777846013 | 22.78° C | 37% | 1018.2 hPa | 0 mm | - | 280 W/m² | - |
| 1777845710 | 22.78° C | 36% | 1018.3 hPa | 0 mm | - | 298 W/m² | - |
| 1777845407 | 22.22° C | 37% | 1018.1 hPa | 0 mm | - | 318 W/m² | - |
| 1777845103 | 22.78° C | 36% | 1018.2 hPa | 0 mm | - | 335 W/m² | - |
| 1777844802 | 22.78° C | 37% | 1018.3 hPa | 0 mm | - | 352 W/m² | - |
| 1777844497 | 22.78° C | 35% | 1018.3 hPa | 0 mm | - | 366 W/m² | - |
| 1777844192 | 22.78° C | 34% | 1018.3 hPa | 0 mm | - | 387 W/m² | - |
| 1777843888 | 22.22° C | 38% | 1018.3 hPa | 0 mm | - | 404 W/m² | - |
| 1777843586 | 22.78° C | 36% | 1018.4 hPa | 0 mm | - | 421 W/m² | - |
| 1777843283 | 23.33° C | 40% | 1018.4 hPa | 0 mm | - | 440 W/m² | - |
| 1777842980 | 22.78° C | 38% | 1018.5 hPa | 0 mm | - | 447 W/m² | - |
| 1777842676 | 22.78° C | 38% | 1018.5 hPa | 0 mm | - | 469 W/m² | - |
| 1777842373 | 23.89° C | 36% | 1018.6 hPa | 0 mm | - | 482 W/m² | - |
| 1777842069 | 23.33° C | 34% | 1018.7 hPa | 0 mm | - | 499 W/m² | - |
| 1777841765 | 23.33° C | 34% | 1018.5 hPa | 0 mm | - | 516 W/m² | - |
| 1777841461 | 23.33° C | 35% | 1018.8 hPa | 0 mm | - | 533 W/m² | - |
| 1777841158 | 22.78° C | 35% | 1018.9 hPa | 0 mm | - | 547 W/m² | - |
| 1777840855 | 22.78° C | 33% | 1019 hPa | 0 mm | - | 558 W/m² | - |
| 1777840552 | 23.33° C | 32% | 1019 hPa | 0 mm | - | 577 W/m² | - |
| 1777840250 | 22.78° C | 32% | 1019.1 hPa | 0 mm | - | 587 W/m² | - |
| 1777839947 | 23.33° C | 33% | 1019.3 hPa | 0 mm | - | 605 W/m² | - |
| 1777839645 | 22.78° C | 36% | 1019.3 hPa | 0 mm | - | 619 W/m² | - |
| 1777839343 | 22.78° C | 33% | 1019.4 hPa | 0 mm | - | 634 W/m² | - |
| 1777839040 | 22.22° C | 35% | 1019.3 hPa | 0 mm | - | 646 W/m² | - |
| 1777838731 | 22.78° C | 37% | 1019.6 hPa | 0 mm | - | 657 W/m² | - |
* Rain latest hour (hover to see other rain measurements)
** Current wind speed in m/s (hover to see current wind gust speed)